[[{"header":{"parameterUnit":"m.s-1","parameterCategory":1,"la1":30.2991,"la2":30.254,"lo1":-89.0895,"lo2":-89.0444,"dy":0.0017,"dx":0.0017,"nx":28,"ny":28,"refTime":"2023-08-23T03:00:00:Z","depth":0,"parameterNumber":2,"parameterNumberName":"U-component_of_WINDS"},"data":[0,0,0,0,0,0,0,0,0,0,0,0,0,0,0,0,0,0,0,0,0,0,0,0,0,0,0,0,0,0,0,0,0,0,0,0,0,0,0,0,0,0,0,0,0,0,0,0,0,0,0,0,0,0,0,0,0,0,-1.6889,-1.689,0,-1.6907,-1.6907,-1.6907,-1.6882,-1.6881,-1.688,-1.6879,-1.6897,-1.6898,-1.6899,0,0,0,0,0,0,0,0,0,0,0,0,0,-1.6835,-1.6836,-1.6889,-1.689,-1.689,-1.6907,-1.6907,-1.6907,-1.6882,-1.6881,-1.688,-1.6878,-1.6896,-1.6898,-1.6899,0,0,0,0,0,0,0,0,0,0,0,0,0,-1.6856,-1.6837,-1.6889,-1.6879,-1.6878,-1.6906,-1.6907,-1.6907,-1.6882,-1.6881,-1.6879,-1.6878,-1.6896,-1.6898,-1.69,-1.6938,0,0,-1.6906,-1.6906,0,0,0,0,0,0,0,0,-1.6855,-1.6858,-1.688,-1.688,-1.6879,-1.6891,-1.6894,-1.6918,-1.6882,-1.6881,-1.6879,-1.6877,-1.6896,-1.6898,-1.6904,-1.6939,-1.694,-1.6906,-1.6907,-1.6908,-1.6908,0,0,0,0,0,0,0,-1.6854,-1.6857,-1.6896,-1.6881,-1.688,-1.6874,-1.6875,-1.6898,-1.6895,-1.6881,-1.6879,-1.6881,-1.6895,-1.6902,-1.6904,-1.694,-1.6906,-1.6907,-1.6909,-1.6909,-1.701,-1.7011,0,0,0,0,0,0,-1.6853,-1.6856,-1.6896,-1.6897,-1.6863,-1.6876,-1.6878,-1.6888,-1.6895,-1.6895,-1.6882,-1.688,-1.6899,-1.6902,-1.6905,-1.6951,-1.6908,-1.691,-1.6911,-1.7008,-1.701,-1.7011,0,0,0,0,0,0,-1.6852,-1.6857,-1.6895,-1.6876,-1.688,-1.6878,-1.689,-1.6889,-1.6896,-1.6896,-1.6896,-1.689,-1.6898,-1.6902,-1.693,-1.6951,-1.691,-1.6912,-1.7006,-1.7009,-1.7011,-1.7044,0,0,0,0,0,0,-1.6851,-1.6857,-1.6871,-1.6876,-1.6881,-1.692,-1.6892,-1.6891,-1.6899,-1.6897,-1.6903,-1.6903,-1.6898,-1.6928,-1.6932,-1.6953,-1.6914,-1.7004,-1.7007,-1.701,-1.7041,-1.7047,-1.7052,0,0,0,0,0,-1.6849,-1.688,-1.6872,-1.6877,-1.69,-1.6922,-1.6924,-1.6917,-1.6901,-1.6916,-1.6916,-1.6903,-1.6948,-1.6931,-1.6936,-1.6958,-1.7003,-1.7007,-1.701,-1.7039,-1.7046,-1.7052,0,0,0,0,0,0,-1.6877,-1.688,-1.6872,-1.6905,-1.6913,-1.6917,-1.6936,-1.6925,-1.6938,-1.6935,-1.6925,-1.6927,-1.6958,-1.6961,-1.6941,-1.6996,-1.6973,-1.6978,-1.6993,-1.7,-1.7006,-1.7005,-1.6915,0,0,0,0,0,-1.6887,-1.6905,-1.6907,-1.6936,-1.6941,-1.6938,-1.6947,-1.6941,-1.6949,-1.6952,-1.6954,-1.6963,-1.6979,-1.699,-1.7005,-1.7041,-1.7043,-1.7059,-1.7065,-1.7069,-1.7073,-1.7094,-1.7101,-1.7022,-1.7022,-1.7022,0,0,-1.6908,-1.6912,-1.6924,-1.6942,-1.6947,-1.6966,-1.694,-1.6961,-1.6975,-1.6955,-1.6982,-1.6985,-1.6993,-1.7027,-1.7041,-1.703,-1.7096,-1.7074,-1.7077,-1.7079,-1.7098,-1.7106,-1.7112,-1.7025,-1.7024,-1.7024,0,0,-1.6956,-1.6961,-1.6986,-1.6992,-1.7001,-1.6999,-1.7005,-1.7011,-1.7011,-1.7039,-1.7025,-1.7041,-1.7069,-1.7076,-1.7083,-1.7135,-1.7123,-1.714,-1.7169,-1.719,-1.7196,-1.7201,-1.722,-1.7227,-1.7144,-1.7144,-1.7144,0,-1.6981,-1.7008,-1.7,-1.7022,-1.7031,-1.7014,-1.704,-1.7046,-1.706,-1.7066,-1.7053,-1.7088,-1.7093,-1.7128,-1.7141,-1.7147,-1.7154,-1.7139,-1.7196,-1.7201,-1.7206,-1.7224,-1.7231,-1.7146,-1.7146,-1.7146,-1.7146,0,-1.7039,-1.7058,-1.7078,-1.7091,-1.7102,-1.7126,-1.7122,-1.7134,-1.7127,-1.7126,-1.7155,-1.716,-1.7176,-1.7184,-1.7177,-1.7218,-1.7211,-1.7197,-1.7174,-1.7216,-1.7232,-1.7239,-1.7149,-1.7148,-1.7148,-1.7147,0,0,-1.7104,-1.7114,-1.7121,-1.7127,-1.7136,-1.7151,-1.7174,-1.719,-1.7201,-1.7211,-1.7231,-1.7255,-1.7242,-1.7251,-1.7245,-1.7263,-1.7304,-1.7246,-1.7247,-1.7257,-1.735,-1.7361,-1.7369,-1.7296,-1.7298,-1.7299,-1.735,0,-1.7152,-1.7192,-1.7186,-1.7225,-1.7244,-1.7228,-1.7249,-1.7257,-1.7257,-1.7273,-1.7273,-1.7291,-1.7272,-1.7278,-1.7294,-1.7295,-1.7323,-1.7292,-1.7315,-1.7316,-1.7314,-1.7378,-1.7389,-1.7437,-1.7356,-1.7357,-1.7358,0,-1.7213,-1.7226,-1.7267,-1.7274,-1.7281,-1.73,-1.7314,-1.7329,-1.7338,-1.7337,-1.7347,-1.7338,-1.7362,-1.7339,-1.7372,-1.7351,-1.736,-1.7362,-1.7364,-1.7366,-1.734,-1.7382,-1.7452,-1.7459,-1.7368,-1.7367,-1.7367,0,-1.7258,-1.7285,-1.7313,-1.7319,-1.7328,-1.7341,-1.7345,-1.7353,-1.7363,-1.7376,-1.7382,-1.7398,-1.7406,-1.7419,-1.7415,-1.7398,-1.7449,-1.7425,-1.7449,-1.7449,-1.7461,-1.746,-1.7533,-1.7466,-1.7466,-1.7466,-1.7466,0,-1.7312,-1.7338,-1.7333,-1.7351,-1.7379,-1.7372,-1.7401,-1.7403,-1.741,-1.7428,-1.7416,-1.7433,-1.7427,-1.7444,-1.7441,-1.7469,-1.7473,-1.7473,-1.7472,-1.7474,-1.7474,-1.748,-1.7477,-1.7468,-1.7468,-1.7467,-1.7467,0,-1.7366,-1.7364,-1.7394,-1.74,-1.7402,-1.7423,-1.7428,-1.7445,-1.7444,-1.7467,-1.7472,-1.7472,-1.7491,-1.7489,-1.751,-1.7508,-1.7544,-1.7538,-1.7541,-1.7539,-1.7564,-1.7562,-1.7644,-1.7655,-1.7581,-1.7581,-1.7582,0,-1.7401,-1.742,-1.7429,-1.744,-1.7445,-1.7463,-1.7474,-1.7468,-1.748,-1.7492,-1.7507,-1.7526,-1.754,-1.7572,-1.7574,-1.759,-1.7585,-1.7613,-1.7588,-1.759,-1.7586,-1.7585,-1.7588,-1.7618,-1.7619,-1.762,-1.762,0,-1.7463,-1.7462,-1.7477,-1.7493,-1.7506,-1.7518,-1.7528,-1.7538,-1.7534,-1.7547,-1.7567,-1.7578,-1.76,-1.7619,-1.7635,-1.7639,-1.7629,-1.7628,-1.7635,-1.7637,-1.7638,-1.7638,-1.7554,-1.7626,-1.7626,-1.7625,-1.7625,-1.7625,-1.7509,-1.7526,-1.7535,-1.7553,-1.756,-1.7571,-1.7587,-1.7589,-1.7605,-1.7623,-1.7619,-1.7641,-1.7651,-1.7671,-1.7678,-1.7695,-1.7685,-1.7695,-1.7697,-1.77,-1.7703,-1.7635,-1.7698,-1.7698,-1.7698,-1.7698,-1.7698,0,-1.7571,-1.7576,-1.7593,-1.7609,-1.7623,-1.7612,-1.7624,-1.7637,-1.7657,-1.7666,-1.7681,-1.7704,-1.7722,-1.7726,-1.7743,-1.7757,-1.7753,-1.7762,-1.7761,-1.7762,-1.7711,-1.7703,-1.7765,-1.7765,-1.7765,-1.7765,-1.7765,-1.7765,-1.7605,-1.7633,-1.7633,-1.7665,-1.767,-1.7692,-1.77,-1.771,-1.7717,-1.7744,-1.7759,-1.7761,-1.7769,-1.7787,-1.7803,-1.7804,-1.7811,-1.7822,-1.7821,-1.7773,-1.7766,-1.776,-1.7753,-1.7824,-1.7824,-1.7871,-1.7872,-1.7872]},{"header":{"parameterUnit":"m.s-1","parameterCategory":1,"la1":30.2991,"la2":30.254,"lo1":-89.0895,"lo2":-89.0444,"dy":0.0017,"dx":0.0017,"nx":28,"ny":28,"refTime":"2023-08-23T03:00:00:Z","depth":0,"parameterNumber":3,"parameterNumberName":"V-component_of_WINDS"},"data":[0,0,0,0,0,0,0,0,0,0,0,0,0,0,0,0,0,0,0,0,0,0,0,0,0,0,0,0,0,0,0,0,0,0,0,0,0,0,0,0,0,0,0,0,0,0,0,0,0,0,0,0,0,0,0,0,0,0,0.3745,0.3745,0,0.3746,0.3746,0.3746,0.3753,0.3753,0.3754,0.3754,0.3753,0.3753,0.3753,0,0,0,0,0,0,0,0,0,0,0,0,0,0.3751,0.3751,0.3745,0.3745,0.3745,0.3746,0.3746,0.3746,0.3753,0.3753,0.3754,0.3754,0.3753,0.3753,0.3753,0,0,0,0,0,0,0,0,0,0,0,0,0,0.375,0.3751,0.3745,0.3749,0.375,0.3746,0.3746,0.3746,0.3753,0.3753,0.3754,0.3754,0.3753,0.3753,0.3753,0.3745,0,0,0.3752,0.3751,0,0,0,0,0,0,0,0,0.375,0.375,0.3749,0.3749,0.3749,0.375,0.3747,0.3745,0.3753,0.3752,0.3754,0.3754,0.3752,0.3751,0.3751,0.3745,0.3745,0.3752,0.3751,0.3751,0.3751,0,0,0,0,0,0,0,0.375,0.375,0.3745,0.3749,0.3749,0.3751,0.3751,0.3747,0.375,0.3752,0.3752,0.3752,0.3752,0.3751,0.3751,0.3745,0.3752,0.3751,0.3751,0.3751,0.3732,0.3731,0,0,0,0,0,0,0.375,0.375,0.3745,0.3745,0.375,0.375,0.3751,0.3749,0.375,0.375,0.3752,0.3753,0.3751,0.3751,0.3751,0.3741,0.3751,0.3751,0.3751,0.3732,0.3732,0.3731,0,0,0,0,0,0,0.375,0.3749,0.3745,0.3748,0.3747,0.375,0.3748,0.3749,0.3748,0.375,0.3751,0.3751,0.3752,0.3751,0.3746,0.3741,0.3751,0.3751,0.3732,0.3732,0.3731,0.3723,0,0,0,0,0,0,0.375,0.3749,0.3746,0.3748,0.3747,0.3741,0.3748,0.3749,0.3748,0.3749,0.3749,0.3749,0.3752,0.3747,0.3746,0.3741,0.375,0.3733,0.3732,0.3732,0.3723,0.3722,0.3721,0,0,0,0,0,0.375,0.3744,0.3746,0.3746,0.3744,0.3741,0.374,0.3743,0.3747,0.3744,0.3746,0.3749,0.3742,0.3746,0.3745,0.374,0.3733,0.3732,0.3732,0.3724,0.3722,0.3721,0,0,0,0,0,0,0.3741,0.3744,0.3747,0.374,0.374,0.3742,0.3738,0.3742,0.374,0.3741,0.3745,0.3745,0.3739,0.3739,0.3743,0.3733,0.3738,0.3737,0.3733,0.3731,0.373,0.3729,0.375,0,0,0,0,0,0.3739,0.3736,0.3738,0.3733,0.3733,0.3735,0.3734,0.3737,0.3737,0.3736,0.3737,0.3737,0.3735,0.3733,0.3731,0.3724,0.3724,0.372,0.3719,0.3717,0.3716,0.3712,0.3711,0.3729,0.3729,0.3729,0,0,0.3733,0.3734,0.3732,0.3731,0.3731,0.3728,0.3735,0.3732,0.373,0.3736,0.3731,0.3732,0.3732,0.3725,0.3723,0.3725,0.3712,0.3717,0.3716,0.3715,0.3712,0.371,0.3708,0.3728,0.3728,0.3729,0,0,0.3722,0.3722,0.3718,0.3718,0.3718,0.372,0.3719,0.372,0.3721,0.3716,0.3721,0.3718,0.3714,0.3714,0.3713,0.3702,0.3705,0.3701,0.3694,0.369,0.3688,0.3687,0.3683,0.3681,0.37,0.37,0.37,0,0.3715,0.3711,0.3715,0.3711,0.371,0.3716,0.3711,0.3711,0.3711,0.371,0.3713,0.3708,0.3709,0.3702,0.3699,0.3699,0.3697,0.3701,0.3688,0.3687,0.3686,0.3682,0.368,0.3699,0.37,0.37,0.37,0,0.3702,0.3699,0.3695,0.3695,0.3694,0.369,0.3693,0.3691,0.3694,0.3695,0.3691,0.3691,0.3689,0.3688,0.3691,0.3682,0.3684,0.3688,0.3693,0.3684,0.368,0.3678,0.3699,0.3699,0.3699,0.3699,0,0,0.3684,0.3687,0.3685,0.3685,0.3686,0.3684,0.368,0.3678,0.3677,0.3676,0.3673,0.3669,0.3673,0.3672,0.3675,0.3671,0.3662,0.3676,0.3676,0.3673,0.3653,0.3649,0.3648,0.3665,0.3664,0.3664,0.3652,0,0.3673,0.3666,0.367,0.3663,0.366,0.3666,0.3663,0.3663,0.3664,0.3662,0.3664,0.3661,0.3666,0.3666,0.3663,0.3664,0.3658,0.3665,0.3661,0.3661,0.3661,0.3646,0.3642,0.3631,0.3651,0.3651,0.3651,0,0.3659,0.3658,0.365,0.3652,0.3651,0.3648,0.3647,0.3645,0.3645,0.3646,0.3646,0.3649,0.3645,0.3651,0.3646,0.365,0.3649,0.3649,0.3649,0.3648,0.3655,0.3644,0.3628,0.3626,0.3648,0.3649,0.3649,0,0.3646,0.3643,0.3639,0.3638,0.364,0.3638,0.3638,0.3639,0.3638,0.3637,0.3636,0.3635,0.3634,0.3632,0.3635,0.3639,0.3629,0.3636,0.363,0.363,0.3627,0.3627,0.361,0.3627,0.3627,0.3627,0.3627,0,0.3633,0.3628,0.3633,0.363,0.3625,0.3629,0.3624,0.3625,0.3625,0.3623,0.3628,0.3625,0.3629,0.3627,0.3629,0.3624,0.3624,0.3624,0.3625,0.3624,0.3623,0.3622,0.3623,0.3627,0.3627,0.3627,0.3627,0,0.3617,0.3621,0.3616,0.3618,0.3619,0.3615,0.3616,0.3614,0.3616,0.3612,0.3612,0.3615,0.3612,0.3615,0.3613,0.3614,0.3607,0.3609,0.3607,0.3608,0.3602,0.3602,0.3583,0.358,0.3599,0.3599,0.3599,0,0.3608,0.3605,0.3607,0.3606,0.3606,0.3604,0.3603,0.3607,0.3606,0.3606,0.3603,0.3601,0.3599,0.3595,0.3597,0.3595,0.3597,0.359,0.3597,0.3595,0.3596,0.3596,0.3596,0.3589,0.3589,0.3588,0.3588,0,0.3592,0.3594,0.3592,0.3591,0.359,0.359,0.3589,0.3588,0.3592,0.3591,0.3588,0.3587,0.3585,0.3583,0.3582,0.3582,0.3586,0.3586,0.3585,0.3583,0.3582,0.3582,0.3603,0.3587,0.3587,0.3587,0.3587,0.3587,0.3579,0.3577,0.3578,0.3576,0.3576,0.3576,0.3573,0.3575,0.3573,0.3572,0.3575,0.3572,0.3572,0.3571,0.3571,0.3568,0.3571,0.3569,0.3569,0.3568,0.3567,0.3583,0.3568,0.3568,0.3568,0.3568,0.3568,0,0.3563,0.3564,0.3562,0.3562,0.356,0.3565,0.3565,0.3563,0.356,0.3561,0.3559,0.3556,0.3554,0.3556,0.3555,0.3552,0.3554,0.3552,0.3552,0.3552,0.3565,0.3566,0.355,0.355,0.355,0.355,0.355,0.355,0.3554,0.3549,0.3551,0.3547,0.3548,0.3545,0.3545,0.3545,0.3545,0.3542,0.354,0.3542,0.3542,0.3541,0.3539,0.354,0.3539,0.3536,0.3537,0.3549,0.3551,0.3552,0.3554,0.3536,0.3536,0.3524,0.3524,0.3524]}]]